User: anonymous   Login
Location: Daytona Beach
(29.2106°N, 81.0231°W)
Time: 09:29:58
(UTC-04:00)
Language:

SRMSAT - Orbit

View from above orbital plane
View from above orbital plane
View from above satellite
View from above satellite

Ground track
Ground track

The orbit data is extracted from the following two-line orbital elements,

1 37841U 11058D   21266.80727720  .00000311  00000-0  25842-4 0  9998
2 37841  19.9730  66.6161 0011840 294.7267  94.7675 14.10704472513547
Epoch (UTC): 23 September 2021 19:22:28
Eccentricity: 0.0011840
inclination: 19.9730°
perigee height: 848 km
apogee height: 865 km
right ascension of ascending node: 66.6161°
argument of perigee: 294.7267°
revolutions per day: 14.10704472
mean anomaly at epoch: 94.7675°
orbit number at epoch: 51354

The dashed part of the orbit path shows where the satellite is in the earth's shadow,  

DLR